Location: Sternwarte Hubelmatt
(47.0367°N, 8.3053°E)
Time: 15:23:39
(UTC+01:00)

BlueWalker 3 - Pass Details

Date: 22 January 2026
Orbit: 451 x 461 km, 53.2° (Epoch: 13 February)

Event Time Altitude Azimuth Distance (km) Brightness Sun altitude
Rises 19:21:54 0° 237° (WSW) 2,447 6.5 -21.5°
Reaches altitude 10° 19:24:01 10° 236° (SW) 1,577 5.3 -21.8°
Enters shadow 19:27:03 62° 225° (SW) 509 2.0 -22.3°
